Regional Weather Roundup
Issued by NWS Newport/Morehead, NC

Current Version | Previous Version | Text Only | Print | Product List | Glossary On
Versions: 1 2 3 4 5 6 7 8 9 10 11 12 13 14 15 16 17 18 19 20 21 22 23 24 25 26 27 28 29 30 31 32 33 34 35 36 37 38 39 40 41 42 43 44 45 46 47 48 49 50
000 ASUS42 KMHX 231222 RWRMHX WEATHER ROUNDUP FOR EASTERN NORTH CAROLINA NATIONAL WEATHER SERVICE NEWPORT/MOREHEAD CITY NC 700 AM EST SUN NOV 23 2014 NOTE: "FAIR" INDICATES FEW OR NO CLOUDS BELOW 12,000 FEET WITH NO SIGNIFICANT WEATHER AND/OR OBSTRUCTIONS TO VISIBILITY NCZ015>017-031-032-045>047-102-103-231300- NORTH COAST CITY SKY/WX TMP DP RH WIND PRES REMARKS EDENTON CLOUDY 40 37 89 CALM 30.29S ELIZABETH CITY CLOUDY 43 37 79 CALM 30.30S KITTY HAWK CLOUDY 56 46 70 CALM 30.28F MANTEO CLOUDY 49 46 90 CALM 30.30S $$ NCZ045>047-081-094-103-104-231300- CENTRAL COAST CITY SKY/WX TMP DP RH WIND PRES REMARKS FRISCO CLOUDY 51 51 100 CALM 30.31R SWANQUARTER N/A 46 N/A N/A E5 30.24F $$ NCZ095-097-098-100-101-231300- SOUTHERN COAST CITY SKY/WX TMP DP RH WIND PRES REMARKS BEAUFORT CLOUDY 50 47 89 CALM 30.27F CEDAR ISLAND N/A 52 N/A N/A E3 30.33S JACKSONVILLE LGT RAIN 48 46 93 CALM 30.25F PINEY ISLAND CLOUDY 53 48 83 E6 30.28S WILMINGTON LGT RAIN 51 50 96 CALM 30.25F $$ NCZ011>013-027>030-043-044-078>080-089-090>093-098-231300- COASTAL PLAIN CITY SKY/WX TMP DP RH WIND PRES REMARKS AHOSKIE CLOUDY 34 32 90 CALM 30.29F CLINTON DRIZZLE 46 43 91 CALM 30.27S ELIZABETHTOWN LGT RAIN 50 50 100 CALM 30.25R GOLDSBORO CLOUDY 44 40 89 CALM 30.26R GREENVILLE CLOUDY 39 36 87 CALM 30.29S HAVELOCK LGT RAIN 48 44 86 SE5 30.28F KENANSVILLE CLOUDY 46 42 88 CALM 30.27R KINSTON CLOUDY 43 39 87 CALM 30.27S NEW BERN CLOUDY 47 43 86 CALM 30.27F RICHLANDS CLOUDY 46 43 87 CALM 30.25F ROCKY MOUNT CLOUDY 39 29 67 CALM 30.28F WASHINGTON CLOUDY 41 38 89 CALM 30.27F WHITEVILLE LGT RAIN 52 50 93 CALM 30.23F $$ AMZ130-135-150-152-154-156-158-170-250-252-270-ANZ085-086-088-633-658-670-231300- MARINE OBSERVATIONS STATION/POSITION TIME TEMP WIND PRES WAVE SWELL AIR SEA DIR/SP/G HT/PER HT/PER (UTC) (F) (DEG/KT/KT) (MB) (FT/S) (FT/S) CHESAPEAKE LIGHT 1200 51 240/ 5/ 6 1026.7 64 E VA BEACH 1200 63 61 200/ 14/ 16 1025.5 2/ 8 2/ 8 DUCK 1200 52 54 200/ 2/ 3 1025.0 2 E DUCK 1200 56 N/A 1/ 9 10 NE DUCK 1200 58 N/A 1/ 9 OREGON INLET 1200 54 51 150/ 4/ 5 1026.1 13E OREGON INLT 1200 61 N/A 2/ 8 HATTERAS CG 1200 59 51 CALM 1026.5 DIAMOND BUOY 1200 66 210/ 8/ 12 1026.2 2/ 8 2/ 8 17 S OCRACOKE NOT AVBL CAPE LOOKOUT 1200 63 80/ 5/ 6 1024.8 BEAUFORT LAB 1200 52 52 360/ 2/ 2 1024.0 30 SE NEW RIVER 1200 68 70 100/ 10/ 10 1023.8 3/ 8 2/ 8 5 SE WRIGHTSVLE 1200 58 60 110/ 6/ 8 1024.0 225 S CAPE HAT 1146 70 73 140/ 16/ 17 1024.8 4/ 9 2/ 9 41 SE CHARLESTON 1200 71 75 110/ 21/ 25 1019.7 6/ 8 3/ 8 $$

USA.gov is the U.S. government's official web portal to all federal, state and local government web resources and services.